| time (UTC) | temp F | wind direction | speed MPH | gust MPH | rain 1hr in | rain 24hr in | rain mn in | humidity % | barometer mb |
| 20260508072734 | 43 | 78 | 3.0 | 10.0 | 0.00 | 0.00 | 0.00 | 44 | 1021.9 |
| 20260508070735 | 43 | 64 | 4.0 | 11.0 | 0.00 | 0.00 | 0.00 | 47 | 1021.8 |
| 20260508064734 | 41 | 72 | 6.0 | 9.0 | 0.00 | 0.00 | 0.00 | 50 | 1021.8 |
| 20260508062734 | 41 | 75 | 6.0 | 10.0 | 0.00 | 0.00 | 0.00 | 52 | 1021.8 |
| 20260508060735 | 39 | 51 | 4.0 | 7.0 | 0.00 | 0.00 | 0.00 | 54 | 1021.7 |
| 20260508054735 | 39 | 58 | 4.0 | 6.0 | 0.00 | 0.00 | 0.00 | 56 | 1021.5 |
| 20260508052734 | 37 | 129 | 2.0 | 4.0 | 0.00 | 0.00 | 0.00 | 60 | 1021.4 |
| 20260508050734 | 37 | 326 | 2.0 | 3.0 | 0.00 | 0.00 | 0.00 | 59 | 1021.3 |
| 20260508044734 | 35 | 67 | 2.0 | 4.0 | 0.00 | 0.00 | 0.00 | 62 | 1021.3 |
| 20260508040733 | 35 | 119 | 1.0 | 2.0 | 0.00 | 0.00 | 0.00 | 61 | 1021.1 |
| 20260508034734 | 34 | 323 | 1.0 | 2.0 | 0.00 | 0.00 | 0.00 | 64 | 1021.1 |
| 20260508032734 | 31 | 213 | 1.0 | 2.0 | 0.00 | 0.00 | 0.00 | 71 | 1021.0 |
| 20260508030734 | 29 | 263 | 3.0 | 4.0 | 0.00 | 0.00 | 0.00 | 76 | 1020.9 |
| 20260508024733 | 28 | 260 | 4.0 | 5.0 | 0.00 | 0.00 | 0.00 | 78 | 1020.9 |
| 20260508022732 | 27 | 241 | 2.0 | 4.0 | 0.00 | 0.00 | 0.00 | 80 | 1020.9 |
| 20260508020733 | 26 | 249 | 2.0 | 3.0 | 0.00 | 0.00 | 0.00 | 82 | 1020.7 |
| 20260508014734 | 26 | 250 | 2.0 | 3.0 | 0.00 | 0.00 | 0.00 | 86 | 1020.6 |
| 20260508012733 | 25 | 261 | 2.0 | 2.0 | 0.00 | 0.00 | 0.00 | 87 | 1020.5 |
| 20260508010734 | 25 | 224 | 2.0 | 4.0 | 0.00 | 0.00 | 0.00 | 87 | 1020.2 |
| 20260508004734 | 25 | 225 | 3.0 | 4.0 | 0.00 | 0.00 | 0.00 | 85 | 1019.9 |
| 20260508002733 | 25 | 242 | 3.0 | 4.0 | 0.00 | 0.00 | 0.00 | 86 | 1019.9 |
| 20260508000735 | 26 | 244 | 3.0 | 4.0 | 0.00 | 0.00 | 0.00 | 86 | 1019.7 |
| 20260507234734 | 26 | 189 | 1.0 | 2.0 | 0.00 | 0.00 | 0.00 | 84 | 1019.6 |
| 20260507232733 | 27 | 155 | 2.0 | 3.0 | 0.00 | 0.00 | 0.00 | 77 | 1019.3 |
| 20260507230733 | 27 | 282 | 2.0 | 3.0 | 0.00 | 0.00 | 0.00 | 80 | 1019.2 |
| 20260507224732 | 28 | 232 | 4.0 | 6.0 | 0.00 | 0.00 | 0.00 | 77 | 1019.0 |
| 20260507222733 | 28 | 234 | 3.0 | 4.0 | 0.00 | 0.00 | 0.00 | 76 | 1018.9 |
| 20260507220733 | 28 | 274 | 2.0 | 3.0 | 0.00 | 0.00 | 0.00 | 80 | 1018.7 |
| 20260507214732 | 29 | 81 | 1.0 | 1.0 | 0.00 | 0.00 | 0.00 | 77 | 1018.5 |
| 20260507212732 | 31 | 252 | 2.0 | 3.0 | 0.00 | 0.00 | 0.00 | 71 | 1018.3 |
| 20260507210732 | 29 | 281 | 2.0 | 3.0 | 0.00 | 0.00 | 0.00 | 74 | 1018.2 |
| 20260507204733 | 31 | 102 | 2.0 | 3.0 | 0.00 | 0.00 | 0.00 | 68 | 1018.0 |
| 20260507202732 | 34 | 93 | 3.0 | 4.0 | 0.00 | 0.00 | 0.00 | 59 | 1017.7 |
| 20260507194732 | 37 | 78 | 2.0 | 3.0 | 0.00 | 0.00 | 0.00 | 54 | 1017.1 |
| 20260507192732 | 37 | 21 | 4.0 | 5.0 | 0.00 | 0.00 | 0.00 | 53 | 1016.9 |
| 20260507190731 | 37 | 27 | 6.0 | 8.0 | 0.00 | 0.00 | 0.00 | 53 | 1016.7 |
| 20260507184732 | 39 | 30 | 6.0 | 9.0 | 0.00 | 0.00 | 0.00 | 49 | 1016.5 |
| 20260507182731 | 40 | 22 | 7.0 | 10.0 | 0.00 | 0.00 | 0.00 | 48 | 1016.3 |
| 20260507180730 | 41 | 22 | 9.0 | 13.0 | 0.00 | 0.00 | 0.00 | 46 | 1016.1 |
| 20260507174732 | 41 | 24 | 8.0 | 11.0 | 0.00 | 0.00 | 0.00 | 45 | 1016.0 |
| 20260507172731 | 42 | 21 | 9.0 | 11.0 | 0.00 | 0.00 | 0.00 | 45 | 1015.8 |
| 20260507171053 | 42 | 28 | 10.0 | 13.0 | 0.00 | 0.00 | 0.00 | 44 | 1015.7 |
| 20260507164732 | 42 | 21 | 9.0 | 13.0 | 0.00 | 0.00 | 0.00 | 44 | 1015.5 |
| 20260507162731 | 42 | 24 | 10.0 | 12.0 | 0.00 | 0.00 | 0.00 | 43 | 1015.4 |
| 20260507160732 | 42 | 38 | 9.0 | 12.0 | 0.00 | 0.00 | 0.00 | 43 | 1015.3 |
| 20260507154731 | 43 | 24 | 9.0 | 12.0 | 0.00 | 0.00 | 0.00 | 43 | 1015.1 |
| 20260507152730 | 42 | 30 | 9.0 | 12.0 | 0.00 | 0.00 | 0.00 | 44 | 1015.1 |
| 20260507150732 | 43 | 30 | 10.0 | 13.0 | 0.00 | 0.00 | 0.00 | 43 | 1014.9 |
| 20260507144732 | 43 | 341 | 5.0 | 10.0 | 0.00 | 0.00 | 0.00 | 42 | 1014.9 |
| 20260507140731 | 43 | 9 | 9.0 | 16.0 | 0.00 | 0.00 | 0.00 | 44 | 1014.6 |
| 20260507132730 | 44 | 23 | 7.0 | 11.0 | 0.00 | 0.00 | 0.00 | 44 | 1014.5 |
| 20260507130732 | 42 | 52 | 10.0 | 14.0 | 0.00 | 0.00 | 0.00 | 47 | 1014.5 |
| 20260507124730 | 43 | 17 | 13.0 | 17.0 | 0.00 | 0.00 | 0.00 | 46 | 1014.4 |
| 20260507122730 | 43 | 34 | 7.0 | 10.0 | 0.00 | 0.00 | 0.00 | 41 | 1014.4 |
| 20260507120731 | 43 | 347 | 7.0 | 14.0 | 0.00 | 0.00 | 0.00 | 43 | 1014.3 |
| 20260507114731 | 44 | 16 | 4.0 | 6.0 | 0.00 | 0.00 | 0.00 | 39 | 1014.1 |
| 20260507112729 | 42 | 36 | 9.0 | 15.0 | 0.00 | 0.00 | 0.00 | 41 | 1014.1 |
| 20260507110730 | 42 | 46 | 11.0 | 14.0 | 0.00 | 0.00 | 0.00 | 48 | 1014.0 |
| 20260507104729 | 43 | 308 | 6.0 | 9.0 | 0.00 | 0.00 | 0.00 | 39 | 1013.9 |
| 20260507102729 | 42 | 217 | 3.0 | 6.0 | 0.00 | 0.00 | 0.00 | 45 | 1014.0 |
| 20260507100729 | 41 | 333 | 6.0 | 11.0 | 0.00 | 0.00 | 0.00 | 46 | 1013.9 |
| 20260507094730 | 42 | 90 | 5.0 | 10.0 | 0.00 | 0.00 | 0.00 | 50 | 1013.7 |
| 20260507092730 | 40 | 50 | 9.0 | 12.0 | 0.00 | 0.00 | 0.00 | 59 | 1013.8 |
| 20260507090730 | 43 | 327 | 6.0 | 18.0 | 0.00 | 0.00 | 0.00 | 44 | 1013.6 |
| 20260507084729 | 40 | 316 | 5.0 | 9.0 | 0.00 | 0.00 | 0.00 | 51 | 1013.7 |
| 20260507082730 | 40 | 333 | 2.0 | 6.0 | 0.00 | 0.00 | 0.00 | 54 | 1013.7 |
| 20260507080729 | 42 | 37 | 6.0 | 9.0 | 0.00 | 0.00 | 0.00 | 52 | 1013.6 |
| 20260507074730 | 39 | 316 | 3.0 | 5.0 | 0.00 | 0.00 | 0.00 | 60 | 1013.7 |